Regional Weather Roundup
Issued by NWS

Home | Current Version | Previous Version | Text Only | Print | Product List | Glossary On
Versions: 1 2 3 4 5 6 7 8 9 10 11 12 13 14 15 16 17 18 19 20 21 22 23 24 25 26 27
000
ASUS42 KTBW 301717
RWRFL
FLORIDA REGIONAL WEATHER ROUNDUP
NATIONAL WEATHER SERVICE TAMPA BAY RUSKIN FL
100 PM EDT SAT JUL 30 2016

NOTE: "FAIR" INDICATES FEW OR NO CLOUDS BELOW 12,000 FEET WITH NO
SIGNIFICANT WEATHER AND/OR OBSTRUCTIONS TO VISIBILITY.

FLZ001>010-012>015-112-114-115-301800-
PANHANDLE FLORIDA

CITY           SKY/WX    TMP DP  RH WIND       PRES   REMARKS
PENSACOLA      PTSUNNY   91  74  57 N6        30.05F HX 100
PENSACOLA NAS  CLOUDY    90  73  57 W8        30.04F HX  98
MILTON NAS       N/A    N/A N/A N/A MISG      30.06F
CRESTVIEW      MOSUNNY   90  71  53 NW8       30.07F HX  96
DUKE FIELD     FAIR      91  71  50 N5        30.04F HX  97
VALPARAISO     PTSUNNY   89  76  65 VRB2      30.05F HX  99
TRI COUNTY     FAIR      91  74  57 CALM      30.06F HX 100
PANAMA CITY    LGT RAIN  77  74  90 E9        30.07S
TYNDALL AFB    CLOUDY    89  76  66 N7        30.07S HX 100
APALACHICOLA   CLOUDY    82  79  90 NW13      30.08R

STATION/POSITION SKY/WX   TEMP    WIND        PRES    WAVE   SWELL
                          AIR SEA DIR/SP/G            HT/PER HT/PER
                          (F)     (DEG/KT/KT) (MB)    (FT/S) (FT/S)
30.1N   87.6W              84 88  310/ 10/ 12 1018.2F   1/ 3
29.2N   88.2W              86 88  270/  6/  6 1018.0R
28.8N   86.0W              85 88  290/ 10/ 14 1018.5F   1/ 6
PANAMA CITY BEAC           85 88  250/  6/  7 1018.5R
TOWER C                    84     290/  7/  9 1018.8F
28.5N   84.5W              87 89   CALM  /  2 1018.5F   1

$$
FLZ011-016>038-118-127-128-134-139-239-301800-
NORTH FLORIDA

CITY           SKY/WX    TMP DP  RH WIND       PRES   REMARKS
MARIANNA       SUNNY     92  75  57 VRB6      30.05F HX 103
TALLAHASSEE    MOSUNNY   95  74  50 VRB6      30.05F HX 105
PERRY          MOSUNNY   93  73  52 SW3       30.06F HX 101
LIVE OAK       FAIR      93  73  52 CALM      30.08F HX 102
CROSS CITY       N/A     85  73  67 NW8       30.08R
LAKE CITY      FAIR      90  73  58 CALM      30.07S HX  98
GAINESVILLE    MOSUNNY   93  74  53 N8        30.06F HX 103
WILLISTON      FAIR      88  79  74 SW14G20   30.09R HX 102
MAYPORT NAS    MOSUNNY   91  74  57 NE9       30.06F HX 100
JACKSONVILLE   PTSUNNY   90  73  57 CALM      30.05F HX  98
JAX NAS        PTSUNNY   93  72  50 N5        30.06F HX 101
JAX CECIL      DRIZZLE   82  79  89 N5        30.07S
FERNANDINA BEA FAIR      93  77  59 E6        30.05S HX 107
ST AUGUSTINE   CLOUDY    83  72  69 W9        30.08S THUNDER
PALM COAST     PTSUNNY   84  81  89 NE5       30.07  HX  98

STATION/POSITION SKY/WX   TEMP    WIND        PRES    WAVE   SWELL
                          AIR SEA DIR/SP/G            HT/PER HT/PER
                          (F)     (DEG/KT/KT) (MB)    (FT/S) (FT/S)
SHELL POINT                89     220/  4/  5 1016.8
KEATON BEACH               86     260/  8/  9 1017.9F
CEDAR KEY                  81     290/  9/ 12 1019.6R
FERNANDINA                 91 89  290/  3/  5 1018.3F
MAYPORT                    87 88   70/  7/  9 1018.8F
31.4N   80.9W              85 87  180/  8/  8 1017.6F   1/ 8   2/ 8
ST AUGUSTINE               84 87   50/  9/ 11 1019.2F

$$
FLZ040-043>046-052-053-057-058-063-144-301800-
INTERIOR CENTRAL FLORIDA

CITY           SKY/WX    TMP DP  RH WIND       PRES   REMARKS
OCALA          TSTM      82  72  69 SW16      30.09R
THE VILLAGES     N/A     88  77  70 MISG      29.97F HX 100
LEESBURG       MOSUNNY   92  73  53 VRB5      30.07F HX 100
SANFORD        CLOUDY    91  73  55 VRB3      30.06F HX  99
ORLANDO EXEC   MOSUNNY   92  74  55 VRB3      30.06F HX 101
ORLANDO INTL   MOSUNNY   91  75  59 SE7       30.06F HX 101
KISSIMMEE      MOSUNNY   91  75  59 SE8       30.07F HX 101
WINTER HAVEN   SUNNY     92  70  48 VRB3      30.07F HX  97
LAKELAND       PTSUNNY   88  77  70 W7        30.08S HX 100
BARTOW         PTSUNNY   91  73  55 NW5       30.07F HX 100
OKEECHOBEE     PTSUNNY   88  73  62 CALM      30.07F HX  96

$$
FLZ041-047-054-059-064-141-147-301800-
EAST CENTRAL FLORIDA

CITY           SKY/WX    TMP DP  RH WIND       PRES   REMARKS
ORMOND BEACH   MOSUNNY   90  73  58 E12       30.07F HX  98
DAYTONA BEACH  MOSUNNY   93  73  52 E13       30.07S HX 102
NEW SMYRNA BEA MOSUNNY   86  75  70 E12       30.08F HX  95
JFK SPACE CTR  SUNNY     90  76  63 SE9       30.05F HX 101
TITUSVILLE     MOSUNNY   91  70  49 E12       30.07F HX  97
CAPE CANAVERAL SUNNY     91  73  55 VRB6      30.06F HX  99
PATRICK AFB    SUNNY     89  76  66 NE10      30.06F HX 100
MELBOURNE      MOSUNNY   91  74  57 E12       30.06F HX 100
VERO BEACH     SUNNY     93  74  53 VRB5      30.06F HX 103
FT PIERCE      PTSUNNY   90  76  63 E9        30.06F HX 101
STUART         MOSUNNY   95  75  52 E8        30.07F HX 107

STATION/POSITION SKY/WX   TEMP    WIND        PRES    WAVE   SWELL
                          AIR SEA DIR/SP/G            HT/PER HT/PER
                          (F)     (DEG/KT/KT) (MB)    (FT/S) (FT/S)
28.5N   80.2W              83 87  240/  4/  6 1019.1F
28.9N   78.5W              85 87  280/  6/  6 1018.8S
TRIDENT PIER               88 85  100/  6/  9 1018.8S
28.4N   80.5W                 85                N/A     1
27.5N   80.2W                 86                N/A     1

$$
FLZ050-056-061-142-242-148-248-149-249-151-251-155-255-
160-260-301800-
WEST CENTRAL FLORIDA

CITY           SKY/WX    TMP DP  RH WIND       PRES   REMARKS
CRYSTAL RIVER  FAIR      82  75  78 CALM      30.09S
INVERNESS      PTSUNNY   88  79  74 NW5       30.08F HX 102
BROOKSVILLE    CLOUDY    85  78  80 VRB3      30.09F HX  96
ZEPHYRHILLS    PTSUNNY   68  64  88 NW5       30.08F
CLEARWATER AIR LGT RAIN  79  75  89 CALM      30.08F
ST PETE CLEARW CLOUDY    86  74  67 N5        30.08S
TAMPA INTL     CLOUDY    84  75  74 W5        30.08F
TAMPA EXEC     CLOUDY    90  77  66 N7        30.08F HX 102
PLANT CITY     LGT RAIN  82  79  89 N7        30.10F
MACDILL AFB    CLOUDY    89  79  71 VRB6      30.07F HX 105
PETER O KNIGHT PTSUNNY   90  77  66 NW7       30.08S HX 102
ST PETERSBURG  CLOUDY    86  74  67 SE8       30.06S
SARASOTA       CLOUDY    92  75  57 NW8       30.06S HX 103
VENICE         NOT AVBL

STATION/POSITION SKY/WX   TEMP    WIND        PRES    WAVE   SWELL
                          AIR SEA DIR/SP/G            HT/PER HT/PER
                          (F)     (DEG/KT/KT) (MB)    (FT/S) (FT/S)
27.3N   84.2W                 89                N/A     1
CLEARWATER BEACH           81 89  100/  7/  9 1018.9R
MIDDLE TAMPA BAY                  140/  3/  8 1019.4R
VENICE                     86 90  220/  9/ 10 1017.9F

$$
FLZ066-069-070-075>078-162-262-165-265-301800-
SOUTHWEST FLORIDA AND KEYS

CITY           SKY/WX    TMP DP  RH WIND       PRES   REMARKS
PUNTA GORDA    MOSUNNY   91  76  61 SW8       30.08S HX 103
FT MYERS       SUNNY     89  77  67 W8        30.06F HX 101
SOUTHWEST INTL MOSUNNY   90  75  61 W5        30.06F HX 100
NAPLES         MOSUNNY   90  74  59 W8        30.06F HX  99
MARCO ISLAND   PTSUNNY   90  73  58 SW7       30.07F HX  98
MARATHON       MOSUNNY   89  75  63 VRB6      30.07F HX  99
KEY WEST NAS   MOSUNNY   90  75  61 SE10      30.07F HX 100
KEY WEST INTL  PTSUNNY   88  77  69 SE8       30.07F HX 100

STATION/POSITION SKY/WX   TEMP    WIND        PRES    WAVE   SWELL
                          AIR SEA DIR/SP/G            HT/PER HT/PER
                          (F)     (DEG/KT/KT) (MB)    (FT/S) (FT/S)
NAPLES                        88              1018.5S
26.0N   85.6W              85 89   30/  2/  4 1019.1F   1/ 6
DRY TORTUGAS               85      70/  4/  5 1018.5F
SAND KEY                   85     120/  6/  8 1018.8F
LONG KEY                   86 89   70/  3/  4 1018.6F

$$
FLZ067-068-071>074-168-172>174-301800-
SOUTHEAST FLORIDA

CITY           SKY/WX    TMP DP  RH WIND       PRES   REMARKS
W PALM BEACH   MOSUNNY   94  74  52 E9        30.06F HX 104
BOCA RATON     MOSUNNY   91  75  59 SE6       30.06F HX 102
FT LAUDER-EXEC MOSUNNY   91  70  49 SE6       30.06S HX  96
FT LAUDERDALE  MOSUNNY   91  72  53 E9        30.05F HX  98
POMPANO BEACH  MOSUNNY   92  70  48 E10       30.06F HX  97
PEMBROKE PINES MOSUNNY   95  70  44 VRB5      30.07F HX 101
OPA LOCKA      MOSUNNY   93  70  46 VRB6      30.06F HX  99
MIAMI          MOSUNNY   90  73  57 SE6       30.06F HX  98
WEST KENDALL   MOSUNNY   92  71  50 NE5       30.06F HX  98
HOMESTEAD      MOSUNNY   90  73  57 E7        30.06F HX  99

STATION/POSITION SKY/WX   TEMP    WIND        PRES    WAVE   SWELL
                          AIR SEA DIR/SP/G            HT/PER HT/PER
                          (F)     (DEG/KT/KT) (MB)    (FT/S) (FT/S)
PORT EVERGLADES            88     110/  4/  6 1018.4S
VIRGINIA KEY               85 91   90/  6/  8 1018.9S
LAKE WORTH                        130/  6/  7   N/A
FOWEY ROCKS                85 86   80/  3/  4 1018.9F
SETTLEMENT POINT           87      50/  6/  7 1019.0F

$$





USA.gov is the U.S. government's official web portal to all federal, state and local government web resources and services.